EHI
0 0 0 0 0 0 0 0 0 0 0 0 0 0 0 0 0 0 0 0 0 0 0 0 0 0 1 2 3 3 3 1 0 0 0 0 0 1 2 3 3 3 3
0 0 0 0 0 0 0 0 0 0 0 0 0 0 0 0 0 0 0 0 0 0 0 0 0 0 0 1 2 3 3 2 1 0 0 0 0 1 2 3 3 3 2
0 0 0 0 0 0 0 0 0 0 0 0 0 0 0 0 0 0 0 0 0 0 0 0 0 0 0 0 1 2 3 3 2 1 0 0 0 1 2 3 3 1 1
0 0 0 0 0 0 0 0 0 0 0 0 0 0 0 0 0 0 0 0 0 0 0 0 0 0 0 0 0 1 2 3 3 1 0 0 0 1 2 3 2 1 0
0 0 0 0 0 0 0 0 0 0 0 0 0 0 0 0 1 1 0 0 0 0 0 0 0 0 0 0 0 0 1 2 3 2 1 0 0 1 2 2 1 0 0
0 0 0 0 0 0 0 0 0 0 0 0 0 0 0 0 1 2 1 0 0 0 0 0 0 0 0 0 0 0 0 1 2 3 2 0 0 0 1 1 0 0 0
0 0 0 0 0 0 0 0 0 0 0 0 0 0 0 0 1 2 1 0 0 0 0 0 0 0 0 0 0 0 0 0 1 2 1 0 0 0 0 0 0 0 0
0 0 0 0 0 0 0 0 0 0 0 0 0 0 0 0 0 1 1 0 0 0 0 0 0 0 0 0 0 0 0 0 0 0 0 0 0 0 0 0 0 0 0
0 0 0 0 0 0 0 0 0 0 0 0 0 0 0 0 0 0 0 0 0 0 0 0 0 0 0 0 0 0 0 0 0 0 0 0 0 0 0 0 0 0 0
0 0 0 0 0 0 0 0 0 0 0 0 0 0 0 0 0 0 0 0 0 0 0 0 0 0 0 0 0 0 0 0 0 0 0 0 0 0 0 0 1 1 1
0 0 0 0 0 0 0 0 0 0 0 0 0 0 0 0 0 0 0 0 0 0 0 0 0 0 0 0 0 0 0 0 0 0 0 0 0 0 0 0 1 1 1
0 0 0 0 0 0 0 0 0 0 0 0 0 0 0 0 0 0 0 0 0 0 0 0 0 0 0 0 0 0 0 0 0 0 0 0 0 0 0 0 0 0 0
0 0 0 0 0 0 0 0 0 0 0 0 0 0 0 0 0 0 0 0 0 0 0 0 0 0 0 0 0 0 0 0 0 0 0 0 0 0 0 0 0 0 0
0 0 0 0 0 0 0 0 0 0 0 0 0 0 0 0 0 0 0 0 0 0 0 0 0 0 0 0 0 0 0 0 0 0 0 0 0 0 0 0 0 0 0
0 0 0 0 0 0 0 0 0 0 0 0 0 0 0 0 0 0 0 0 0 0 0 0 0 0 0 0 0 0 0 0 0 0 0 0 0 0 0 0 0 0 0
0 0 0 0 0 0 0 0 0 0 0 0 0 0 0 0 0 0 0 0 0 0 0 0 0 0 0 0 0 0 0 0 0 0 0 0 0 0 0 0 0 0 0
0 0 0 0 0 0 0 0 0 0 0 0 0 0 0 0 0 0 0 0 0 0 0 0 0 0 0 0 0 0 0 0 0 0 0 0 0 0 0 0 0 0 0
0 0 0 0 0 0 0 0 0 0 0 0 0 0 0 0 0 0 0 0 0 0 0 0 0 0 0 0 0 0 0 0 0 0 0 0 0 0 0 0 0 0 0
0 0 0 0 0 0 0 0 0 0 0 0 0 0 0 0 0 0 0 0 0 0 0 0 0 0 0 0 0 0 0 0 0 0 0 0 0 0 0 0 0 0 0
0 0 0 0 0 0 0 0 0 0 0 0 0 0 0 0 0 0 0 0 0 0 0 0 0 0 0 0 0 0 0 0 0 0 0 0 0 0 0 0 0 0 0
0 0 0 0 0 0 0 0 0 0 0 0 0 0 0 0 0 0 0 0 0 0 0 0 0 0 0 0 0 0 0 0 0 0 0 0 0 0 0 0 0 0 0
0 0 0 0 0 0 0 0 0 0 0 0 0 0 0 0 0 0 0 0 0 0 0 0 0 0 0 0 0 0 0 0 0 0 0 0 0 0 0 0 0 0 0
0 0 0 0 0 0 0 0 0 0 0 0 0 0 0 0 0 0 0 0 0 0 0 0 0 0 0 0 0 0 0 0 0 0 0 0 0 0 0 0 0 0 0
0 0 0 0 0 0 0 0 0 0 0 0 0 0 0 0 0 0 0 0 0 0 0 0 0 0 0 0 0 0 0 0 0 0 0 0 0 0 0 0 0 0 0
0 0 0 0 0 0 0 0 0 0 0 0 0 0 0 0 0 0 0 0 0 0 0 0 0 0 0 0 0 0 0 0 0 0 0 0 0 0 0 0 0 0 0
0 0 0 0 0 0 0 0 0 0 0 0 0 0 0 0 0 0 0 0 0 0 0 0 0 0 0 0 0 0 0 0 0 0 0 0 0 0 0 0 0 0 0
Wind_Speed
4 4 4 5 5 5 5 6 6 6 7 8 7 6 6 6 5 4 3 3 1 1 2 4 5 5 5 5 5 6 6 5 4 3 2 3 4 6 6 5 5 5 6
3 3 4 4 5 5 6 6 6 6 7 7 7 6 6 6 6 5 4 4 3 2 2 2 3 4 5 5 5 6 6 5 4 5 3 3 4 6 7 7 6 5 5
2 3 4 4 5 5 6 6 6 6 6 7 7 7 6 6 6 5 4 4 3 3 2 1 2 3 4 4 5 6 5 5 4 5 4 2 3 5 7 6 7 5 6
2 2 3 4 4 5 5 5 6 6 6 7 6 6 6 6 5 5 4 4 4 3 2 1 1 2 4 5 5 6 6 6 5 6 5 4 4 5 6 6 6 4 5
1 2 3 4 4 4 5 5 5 6 6 6 6 7 6 5 5 5 4 4 4 4 3 2 1 1 1 3 4 5 6 5 5 5 6 5 5 6 6 5 6 6 5
1 2 3 3 4 5 5 5 5 6 6 5 6 6 7 6 10 9 6 3 3 3 3 3 2 2 3 1 4 7 8 8 7 6 5 7 7 7 6 7 7 7 4
2 2 3 3 4 4 5 5 5 5 5 5 6 6 6 8 12 11 9 4 3 3 3 3 2 2 3 2 1 5 7 9 9 6 7 7 8 8 9 9 7 6 5
2 2 3 3 4 4 4 5 5 4 4 4 5 5 5 8 12 11 9 5 3 3 3 3 2 2 2 2 3 3 4 4 5 5 6 6 7 8 8 8 9 9 8
3 3 3 3 3 4 4 5 4 3 4 4 4 4 5 7 12 12 9 3 3 4 4 3 2 2 2 2 3 4 5 4 4 7 7 9 12 14 12 10 10 10 7
5 4 3 3 3 4 4 3 3 3 4 4 4 4 4 5 10 11 10 3 3 3 3 4 4 3 1 2 3 4 5 4 5 7 8 10 10 13 14 10 10 10 7
4 3 3 3 3 4 3 2 3 3 4 4 4 4 4 5 8 11 10 3 3 3 3 3 3 4 3 3 3 3 5 6 6 7 7 7 7 6 5 5 5 7 6
4 4 4 4 3 2 2 3 2 3 3 4 4 5 4 5 6 8 10 7 5 2 2 3 2 3 4 4 4 6 9 8 6 6 6 6 6 5 5 6 7 6 4
4 5 5 4 3 3 2 3 2 2 2 3 3 3 4 4 5 9 10 9 8 3 2 4 3 4 5 5 7 8 7 5 6 6 6 5 4 5 6 6 8 9 9
6 6 5 4 4 3 2 2 2 2 2 2 2 3 3 4 4 4 5 5 6 4 3 4 5 7 6 6 6 5 4 4 5 5 5 4 4 5 5 5 5 6 6
6 6 5 5 4 4 3 3 4 4 4 3 2 2 2 3 5 8 5 3 3 2 2 2 2 2 3 4 4 4 4 4 5 4 5 5 5 5 4 4 4 3 4
6 6 5 4 4 4 3 3 6 7 7 8 7 5 4 6 7 8 7 6 5 2 2 2 2 2 3 3 3 3 3 4 4 5 5 5 6 6 5 3 3 4 5
8 7 5 4 4 4 4 4 4 4 5 7 8 8 7 6 5 5 5 4 3 2 2 1 1 1 2 2 2 2 2 3 3 4 5 5 5 5 5 4 4 4 4
9 9 7 5 5 5 5 5 4 4 3 3 4 7 8 7 5 3 3 2 2 2 1 0 1 1 1 2 2 2 3 3 3 4 4 5 5 5 5 5 4 5 4
8 7 6 6 5 5 5 4 4 5 4 4 3 3 5 5 4 3 1 1 1 1 1 1 1 1 1 1 2 2 3 3 4 4 4 4 4 4 4 4 4 6 4
8 13 10 6 5 5 5 5 5 5 5 5 5 4 2 3 2 3 3 3 3 3 3 2 2 2 2 2 2 3 3 3 4 4 4 4 4 4 5 6 6 5 4
7 8 12 7 6 7 6 6 6 6 6 6 6 6 8 5 5 5 4 4 4 5 4 4 3 3 3 3 3 4 4 4 4 4 4 4 5 4 4 5 5 5 4
6 6 7 8 7 7 7 7 6 6 7 7 6 5 10 6 5 5 5 6 5 5 4 4 4 4 4 4 4 4 5 5 5 5 5 5 5 4 4 4 5 4 5
6 7 7 7 7 9 8 7 7 7 7 7 6 5 5 6 7 7 7 6 6 5 5 5 5 4 4 4 4 5 6 6 6 6 6 6 5 5 5 5 6 5 5
6 7 8 8 7 7 8 8 8 8 8 8 7 7 7 7 7 8 8 6 6 6 6 6 6 8 9 6 5 5 5 5 5 6 8 7 7 6 5 5 6 6 6
7 7 7 7 7 8 8 9 8 9 8 8 8 7 7 7 8 8 7 7 8 7 9 8 7 8 10 11 8 7 9 11 9 6 6 6 7 7 6 6 5 5 5
9 8 7 6 6 7 8 8 9 9 9 9 8 8 8 8 8 8 7 7 7 8 8 8 10 11 11 10 11 12 13 13 13 11 7 6 7 6 7 6 7 6 6
Wind_Direction
333 336 343 342 344 348 351 348 344 344 347 350 350 352 354 355 355 356 352 342 309 267 235 214 211 199 194 196 192 193 194 181 180 170 163 158 161 161 155 153 150 150 153
325 337 343 344 347 351 347 342 343 345 347 348 350 354 355 355 354 356 355 348 334 317 280 233 223 209 198 192 194 193 190 181 171 166 161 163 163 161 151 146 143 144 141
330 343 348 349 347 343 339 338 343 345 347 350 354 354 348 345 344 345 346 345 339 320 303 265 238 213 206 198 193 191 184 181 165 156 151 141 135 148 141 133 131 126 135
330 342 342 338 334 331 333 339 343 345 347 347 346 344 340 336 337 340 346 347 343 337 324 300 270 231 215 198 192 185 172 167 162 159 149 142 137 142 142 141 135 123 123
313 325 324 326 330 335 338 339 341 346 348 342 345 345 342 337 340 347 347 345 344 348 352 357 350 19 205 192 185 176 169 164 163 160 151 148 150 155 155 143 136 126 107
265 295 312 328 336 337 335 338 342 343 342 346 349 345 346 345 345 356 2 348 344 352 354 357 3 29 32 49 188 183 175 168 167 160 154 160 159 152 141 145 140 136 124
254 288 308 321 328 329 334 341 340 337 340 342 345 346 343 339 350 1 8 7 354 352 353 354 5 17 22 17 126 164 172 172 172 161 159 163 160 159 152 151 146 129 120
252 279 295 308 314 322 334 338 331 327 335 333 336 341 339 343 355 360 6 9 1 360 357 351 354 353 359 41 82 103 113 134 159 161 164 161 156 152 147 138 129 110 101
251 264 274 285 303 317 326 327 325 329 333 329 327 340 344 339 351 358 6 356 2 358 351 351 352 352 354 93 111 116 107 95 100 126 133 137 141 140 137 131 134 136 130
243 249 262 270 282 296 306 312 316 321 320 326 333 341 342 337 346 355 2 355 357 352 348 351 351 348 7 118 124 129 125 117 116 112 112 120 132 141 144 148 149 147 135
235 243 257 263 268 274 293 306 317 326 331 338 336 335 341 343 346 354 2 2 348 344 344 344 343 0 40 93 112 124 130 125 118 117 115 116 120 127 126 121 132 146 141
224 238 253 261 265 272 280 303 322 333 335 339 342 338 337 340 345 350 2 8 4 352 338 337 343 20 63 90 99 117 119 117 117 117 119 122 126 127 118 108 99 86 80
220 238 249 260 259 256 256 281 306 322 326 326 337 333 330 334 342 357 1 1 5 6 334 345 22 62 76 86 98 108 112 114 119 118 120 113 103 114 114 103 91 86 78
223 237 242 250 261 256 241 234 241 267 286 304 316 319 323 329 339 346 345 348 357 6 3 16 47 66 77 86 85 79 82 99 112 116 113 106 103 111 116 115 116 113 99
227 236 240 238 244 251 245 231 225 228 213 223 243 250 287 314 312 327 332 331 333 335 2 25 42 63 72 73 74 74 81 95 100 106 115 117 117 114 110 109 115 109 113
224 233 231 231 234 235 246 268 242 233 243 236 228 220 236 253 292 321 336 343 348 9 61 58 59 75 87 94 96 87 79 97 107 116 119 122 126 126 120 109 105 115 122
219 225 220 220 224 226 225 234 265 273 250 247 243 238 238 256 285 313 332 348 6 43 70 75 73 86 100 108 111 108 109 113 116 122 125 127 127 125 124 123 118 114 118
221 227 220 216 215 216 218 220 223 237 265 273 254 244 243 247 258 278 314 4 17 31 65 129 134 122 122 131 135 129 126 123 121 126 128 131 134 132 133 138 139 137 136
220 222 219 214 211 211 212 214 217 223 231 245 261 266 242 236 242 244 221 181 213 226 220 220 213 193 173 164 160 152 150 149 144 139 140 143 144 138 141 146 146 146 138
227 228 214 209 209 209 208 210 215 219 225 231 236 234 201 178 210 223 208 206 210 216 211 210 214 212 195 180 170 161 156 155 154 153 157 157 157 155 156 159 162 163 167
232 231 221 211 209 209 208 211 214 214 219 227 234 222 190 193 211 214 210 210 212 213 209 205 204 203 197 185 177 176 175 175 173 169 166 166 164 165 167 167 170 169 158
240 231 218 216 214 212 211 211 209 213 219 227 236 230 210 204 211 213 214 217 214 211 204 197 201 201 195 190 185 182 183 183 182 178 175 172 172 171 165 166 168 168 168
254 242 232 226 219 217 214 211 210 213 218 222 223 217 204 209 215 217 219 217 210 207 202 197 202 206 202 197 192 187 190 194 190 180 177 176 175 175 171 174 174 170 182
271 254 244 237 226 219 217 216 215 215 217 219 218 215 213 213 216 218 217 212 206 205 199 198 203 208 204 198 198 198 199 192 180 182 180 178 179 178 176 178 181 186 187
297 274 258 247 237 230 226 223 219 216 217 217 218 216 214 213 216 219 216 208 205 206 204 201 203 207 207 203 198 200 202 196 188 178 176 177 181 181 180 182 181 184 185
328 309 287 269 255 245 236 231 227 221 219 218 216 214 212 212 215 216 212 206 206 208 207 204 205 204 204 204 205 203 202 200 196 188 175 176 181 185 183 187 189 188 188